Weather History for Eagle River, WI

Change the Weather History Date:

Monday, May 12, 2014

  Actual Average Record
Temperature  
Mean Temperature 53 °F -  
Max Temperature 60 °F 69 °F 82 °F (1991)
Min Temperature 47 °F 45 °F 26 °F (2008)
Degree Days  
Heating Degree Days 12    
Growing Degree Days 3 (Base 50)    
Moisture  
Dew Point 50 °F    
Average Humidity 92    
Maximum Humidity 100    
Minimum Humidity 56    
Precipitation  
Precipitation 0.62 in - - ()
Sea Level Pressure  
Sea Level Pressure 29.84 in    
Wind  
Wind Speed 9 mph (ESE)    
Max Wind Speed 13 mph    
Max Gust Speed 18 mph    
Visibility 7 miles    
Events Fog , Rain    
Averages and records for this station are not official NWS values.
T = Trace of Precipitation, MM = Missing Value Source: NWS Daily Summary

Daily Weather History Graph

Daily Weather History Graph

Search for Another Location

Airport:

Trip Planner

Search our weather history database for the weather conditions in past years. The results will help you decide how hot, cold, wet, or windy it might be!

Date:

Astronomy

May. 12, 2014 Rise Set
Actual Time 5:28 AM CDT 8:18 PM CDT
Civil Twilight 4:54 AM CDT 8:53 PM CDT
Nautical Twilight 4:10 AM CDT 9:37 PM CDT
Astronomical Twilight 3:18 AM CDT 10:30 PM CDT
Moon 6:10 PM CDT (5/12) 4:16 AM CDT (5/12)
Length of Visible Light 15h 59m
Length of Day
14h 50m
Waxing Gibbous, 95% of the Moon is Illuminated
May 12
Waxing Gibbous
May 14
Full
May 21
Last Quarter
May 28
New
Jun 5
First Quarter

Hourly Weather History & Observations

Time (CDT) Temp. Dew Point Humidity Pressure Visibility Wind Dir Wind Speed Gust Speed Precip Events Conditions
12:10 AM 58.6 °F 43.0 °F 56% 29.93 in 10.0 mi ESE 10.4 mph 16.1 mph N/A   Overcast
12:30 AM 58.1 °F 42.3 °F 56% 29.92 in 10.0 mi ESE 10.4 mph 18.4 mph N/A   Mostly Cloudy
12:50 AM 57.4 °F 41.9 °F 56% 29.91 in 10.0 mi ESE 11.5 mph 16.1 mph N/A   Overcast
1:10 AM 56.8 °F 41.9 °F 57% 29.92 in 10.0 mi SE 11.5 mph 17.3 mph N/A   Mostly Cloudy
1:30 AM 56.5 °F 41.9 °F 58% 29.93 in 10.0 mi ESE 12.7 mph 18.4 mph N/A   Scattered Clouds
1:50 AM 56.3 °F 42.3 °F 59% 29.92 in 10.0 mi East 9.2 mph - N/A   Mostly Cloudy
2:10 AM 55.8 °F 42.8 °F 62% 29.91 in 10.0 mi East 9.2 mph - N/A Rain Light Rain
2:30 AM 55.0 °F 43.2 °F 64% 29.92 in 10.0 mi ESE 8.1 mph - N/A Rain Light Rain
2:50 AM 52.9 °F 45.0 °F 74% 29.91 in 10.0 mi ESE 4.6 mph - 0.01 in Rain Rain
3:10 AM 51.3 °F 45.9 °F 82% 29.90 in 7.0 mi East 4.6 mph - 0.04 in Rain Heavy Rain
3:30 AM 50.7 °F 46.8 °F 86% 29.91 in 10.0 mi ESE 4.6 mph - 0.06 in Rain Rain
3:50 AM 50.0 °F 45.0 °F 83% 29.91 in 10.0 mi East 6.9 mph - 0.09 in Rain Rain
4:10 AM 48.7 °F 44.1 °F 84% 29.91 in 5.0 mi East 5.8 mph - 0.05 in Rain Heavy Rain
4:30 AM 48.2 °F 46.0 °F 92% 29.91 in 7.0 mi East 8.1 mph - 0.12 in Rain Heavy Rain
4:50 AM 47.8 °F 46.6 °F 95% 29.90 in 5.0 mi East 6.9 mph - 0.21 in Rain Heavy Rain
5:10 AM 47.8 °F 47.1 °F 97% 29.89 in 5.0 mi East 6.9 mph - 0.06 in Rain Heavy Rain
5:30 AM 48.2 °F 47.7 °F 98% 29.86 in 4.0 mi East 8.1 mph - 0.15 in Rain Heavy Rain
5:50 AM 48.4 °F 48.4 °F 100% 29.86 in 4.0 mi East 10.4 mph - 0.25 in Rain Rain
6:10 AM 49.1 °F 49.1 °F 100% 29.83 in 4.0 mi East 10.4 mph - 0.03 in Rain Light Rain
6:30 AM 49.3 °F 49.3 °F 100% 29.82 in 5.0 mi East 6.9 mph - 0.05 in Rain Rain
6:50 AM 50.0 °F 50.0 °F 100% 29.82 in 10.0 mi East 10.4 mph - 0.06 in   Overcast
7:10 AM 50.4 °F 50.4 °F 100% 29.82 in 10.0 mi East 8.1 mph - N/A   Overcast
7:30 AM 50.9 °F 50.9 °F 100% 29.81 in 10.0 mi ESE 10.4 mph 18.4 mph N/A   Overcast
7:50 AM 50.9 °F 50.7 °F 99% 29.82 in 10.0 mi ESE 10.4 mph - N/A   Overcast
8:10 AM 50.5 °F 50.5 °F 100% 29.82 in 10.0 mi ESE 11.5 mph 17.3 mph N/A   Overcast
8:30 AM 50.4 °F 50.4 °F 100% 29.83 in 10.0 mi SE 8.1 mph - N/A   Overcast
8:50 AM 50.2 °F 50.0 °F 99% 29.84 in 10.0 mi SE 8.1 mph - N/A   Overcast
9:10 AM 50.0 °F 50.0 °F 100% 29.85 in 7.0 mi SE 5.8 mph - N/A   Overcast
9:30 AM 50.2 °F 50.2 °F 100% 29.84 in 7.0 mi ESE 8.1 mph - N/A   Overcast
9:50 AM 50.4 °F 50.4 °F 100% 29.84 in 5.0 mi SE 6.9 mph - N/A   Overcast
10:10 AM 50.7 °F 50.7 °F 100% 29.85 in 2.5 mi ESE 5.8 mph - N/A   Overcast
10:30 AM 50.9 °F 50.9 °F 100% 29.86 in 1.0 mi SE 4.6 mph - N/A   Overcast
10:50 AM 51.1 °F 51.1 °F 100% 29.87 in 0.5 mi SE 4.6 mph - N/A Fog Fog
11:10 AM 51.8 °F 51.8 °F 100% 29.88 in 0.5 mi SE 4.6 mph - N/A Fog Fog
11:30 AM 51.8 °F 51.8 °F 100% 29.88 in 0.5 mi SE 6.9 mph - N/A Fog Fog
11:50 AM 52.2 °F 52.2 °F 100% 29.87 in 0.5 mi SE 8.1 mph - N/A Fog Fog
12:10 PM 52.9 °F 52.9 °F 100% 29.86 in 0.8 mi SE 6.9 mph - N/A   Overcast
12:50 PM 53.8 °F 53.8 °F 100% 29.84 in 0.8 mi ESE 9.2 mph - N/A   Overcast
1:10 PM 54.1 °F 54.1 °F 100% 29.81 in 1.0 mi East 5.8 mph - N/A   Overcast
1:30 PM 54.5 °F 54.5 °F 100% 29.82 in 1.2 mi SE 5.8 mph - N/A   Overcast
1:50 PM 55.4 °F 55.4 °F 100% 29.82 in 2.0 mi ESE 4.6 mph - N/A   Overcast
2:30 PM 56.3 °F 55.6 °F 97% 29.80 in 7.0 mi East 8.1 mph - N/A   Overcast
2:50 PM 56.7 °F 55.8 °F 97% 29.81 in 10.0 mi ESE 6.9 mph - N/A   Overcast
3:10 PM 57.0 °F 55.8 °F 96% 29.81 in 10.0 mi ESE 8.1 mph - N/A   Overcast
3:30 PM 57.2 °F 55.8 °F 95% 29.81 in 10.0 mi SE 6.9 mph - N/A   Overcast
3:50 PM 57.6 °F 56.1 °F 95% 29.82 in 10.0 mi ESE 8.1 mph - N/A   Overcast
4:10 PM 57.2 °F 55.6 °F 94% 29.83 in 10.0 mi ESE 8.1 mph - N/A   Overcast
4:30 PM 57.4 °F 55.6 °F 94% 29.83 in 10.0 mi ESE 6.9 mph - N/A   Overcast
4:50 PM 59.0 °F 55.4 °F 88% 29.83 in 10.0 mi East 9.2 mph - N/A   Overcast
5:10 PM 59.9 °F 55.0 °F 84% 29.83 in 10.0 mi East 8.1 mph - N/A   Overcast
5:30 PM 59.9 °F 55.8 °F 86% 29.82 in 10.0 mi East 6.9 mph - N/A   Overcast
5:50 PM 58.1 °F 55.8 °F 92% 29.82 in 10.0 mi East 9.2 mph - N/A   Overcast
6:10 PM 57.7 °F 55.8 °F 93% 29.81 in 10.0 mi East 8.1 mph - N/A   Overcast
6:30 PM 55.9 °F 54.9 °F 96% 29.81 in 10.0 mi East 9.2 mph - N/A   Overcast
6:50 PM 55.4 °F 54.7 °F 97% 29.81 in 10.0 mi East 8.1 mph - N/A   Overcast
7:10 PM 54.7 °F 54.1 °F 98% 29.81 in 7.0 mi ESE 8.1 mph - N/A   Overcast
7:30 PM 53.4 °F 53.2 °F 99% 29.82 in 5.0 mi ESE 11.5 mph 16.1 mph N/A   Overcast
7:50 PM 52.3 °F 52.3 °F 100% 29.81 in 1.5 mi ESE 6.9 mph - N/A   Overcast
8:10 PM 51.8 °F 51.8 °F 100% 29.81 in 1.2 mi ESE 9.2 mph - N/A   Overcast
8:30 PM 51.3 °F 51.3 °F 100% 29.80 in 3.0 mi ESE 10.4 mph - N/A   Overcast
8:50 PM 51.1 °F 51.1 °F 100% 29.80 in 7.0 mi ESE 11.5 mph 18.4 mph N/A   Overcast
9:10 PM 50.9 °F 50.9 °F 100% 29.79 in 7.0 mi ESE 10.4 mph 17.3 mph N/A   Overcast
9:30 PM 50.9 °F 50.9 °F 100% 29.79 in 7.0 mi ESE 9.2 mph - N/A   Overcast
9:50 PM 50.7 °F 50.7 °F 100% 29.80 in 10.0 mi SE 8.1 mph - N/A   Overcast
10:10 PM 50.4 °F 50.4 °F 100% 29.78 in 7.0 mi ESE 11.5 mph 16.1 mph N/A   Overcast
10:30 PM 50.2 °F 50.2 °F 100% 29.78 in 5.0 mi ESE 5.8 mph - N/A   Overcast
10:50 PM 50.0 °F 50.0 °F 100% 29.77 in 7.0 mi SE 8.1 mph - N/A   Overcast
11:10 PM 50.0 °F 50.0 °F 100% 29.77 in 5.0 mi SE 9.2 mph - N/A Rain Rain
11:30 PM 50.0 °F 50.0 °F 100% 29.76 in 2.5 mi SE 6.9 mph - N/A   Light Drizzle
11:50 PM 50.0 °F 50.0 °F 100% 29.75 in 2.0 mi SE 8.1 mph - N/A   Overcast